OBJECT BP (43819 NORAD) Tracking and Keplerian Element Data

This shows tracking and keplerian element data for the satellite.

Feedback or suggestion? Click here.




ElementValue
Catalog43819
NameOBJECT BP
Epoch Orbit422
Epoch Day3.80166074
Epoch Year2019
RAAN77.6607
Inclination97.7637
Eccentricity0.001412
Argument of Perigee158.582
Mean Anonmoly201.5995
Mean Motion14.9528434
Decay Rate3.28E-06
L11 43819U 18099BP 19003.80166074 .00000328 00000-0 34969-4 0 9995
L22 43819 97.7637 77.6607 0014120 158.5820 201.5995 14.95284340 4225

Live tracking and technical data element details for OBJECT BP (NORAD 43819). OBJECT BP can be tracked NOW for your location showing map with azimuth and elevation plus other details from your city location.

Track the satellite on the map from your city or location and see movement details for azimuth, elevation, latitude, longitude, range, height, and movement on the map or in text.







IsCatalogInMostPopularTable: catalog: 43819, numindb: 79
Update: records affected: 1



GetName: 43819 OBJECT BP

Hit Count: updated at: Sun, 21 Jul 2019 16:17:40 GMT